South St. Paul, MN

8:28 AM CDT on May 30, 2017 (GMT -0500)
South Saint Paul Municipal-Fleming

Weather History for KSGS - June, 2013

Change the Weather History Date:

Sunday, June 9, 2013

  Actual Average (KSTP) Record (KSTP)
Temperature  
Mean Temperature 64 °F -  
Max Temperature 70 °F 73 °F 91 °F (2012)
Min Temperature 58 °F 54 °F 50 °F (2003)
Degree Days  
Heating Degree Days 2    
Growing Degree Days 14 (Base 50)    
Moisture  
Dew Point 57 °F    
Average Humidity 82    
Maximum Humidity 95    
Minimum Humidity 62    
Precipitation  
Precipitation 0.46 in - - ()
Sea Level Pressure  
Sea Level Pressure 29.82 in    
Wind  
Wind Speed 6 mph (ESE)    
Max Wind Speed 12 mph    
Max Gust Speed 20 mph    
Visibility 8 miles    
Events Rain    
Averages and records for this station are not official NWS values.
T = Trace of Precipitation, MM = Missing Value Source: NWS Daily Summary

Daily Weather History Graph

Daily Weather History Graph

Search for Another Location

Airport or City:

Trip Planner

Search our weather history database for the weather conditions in past years. The results will help you decide how hot, cold, wet, or windy it might be!

Date:

Astronomy

Jun. 09, 2013 Rise Set
Actual Time 5:25 AM CDT 8:57 PM CDT
Civil Twilight 4:49 AM CDT 9:34 PM CDT
Nautical Twilight 4:00 AM CDT 10:22 PM CDT
Astronomical Twilight 2:57 AM CDT 11:26 PM CDT
Moon 6:25 AM CDT (6/9) 9:41 PM CDT (6/9)
Length of Visible Light 16h 45m
Length of Day
15h 31m
New Moon, 1% of the Moon is Illuminated
Jun 9
New Moon
Jun 16
First Quarter
Jun 23
Full
Jun 29
Last Quarter
Jul 8
New

Hourly Weather History & Observations

Time (CDT) Temp. Dew Point Humidity Pressure Visibility Wind Dir Wind Speed Gust Speed Precip Events Conditions
12:14 AM 66.2 °F 53.4 °F 63% 29.90 in 10.0 mi ESE 5.8 mph - N/A   Scattered Clouds
12:34 AM 66.2 °F 52.7 °F 62% 29.90 in 10.0 mi ESE 4.6 mph - N/A   Mostly Cloudy
12:54 AM 65.8 °F 52.7 °F 62% 29.91 in 10.0 mi SE 5.8 mph - N/A   Scattered Clouds
1:14 AM 65.3 °F 52.7 °F 64% 29.91 in 10.0 mi SE 6.9 mph - N/A   Scattered Clouds
1:34 AM 64.4 °F 53.2 °F 67% 29.91 in 10.0 mi SE 5.8 mph - N/A Rain Light Rain
1:54 AM 64.0 °F 53.6 °F 69% 29.90 in 10.0 mi SE 3.5 mph - N/A Rain Light Rain
2:14 AM 63.3 °F 54.1 °F 72% 29.90 in 7.0 mi SE 5.8 mph - N/A Rain Light Rain
2:34 AM 62.6 °F 55.0 °F 76% 29.90 in 10.0 mi ESE 5.8 mph - 0.01 in Rain Light Rain
2:54 AM 62.6 °F 54.7 °F 75% 29.89 in 10.0 mi SE 4.6 mph - 0.01 in   Light Drizzle
3:14 AM 61.9 °F 54.9 °F 78% 29.89 in 10.0 mi SE 8.1 mph - 0.01 in Rain Light Rain
3:34 AM 61.2 °F 55.4 °F 81% 29.87 in 7.0 mi ESE 5.8 mph - 0.05 in Rain Light Rain
3:54 AM 60.3 °F 55.4 °F 84% 29.87 in 7.0 mi East 10.4 mph - 0.06 in Rain Light Rain
4:14 AM 59.9 °F 55.6 °F 86% 29.87 in 7.0 mi East 8.1 mph - 0.01 in Rain Light Rain
4:34 AM 59.4 °F 55.8 °F 88% 29.86 in 5.0 mi East 6.9 mph - 0.03 in Rain Light Rain
4:54 AM 59.2 °F 55.9 °F 89% 29.86 in 7.0 mi ESE 6.9 mph - 0.05 in Rain Light Rain
5:14 AM 59.4 °F 55.8 °F 88% 29.85 in 7.0 mi East 6.9 mph - 0.01 in Rain Light Rain
5:34 AM 59.4 °F 55.6 °F 87% 29.84 in 7.0 mi East 5.8 mph - 0.03 in Rain Rain
5:54 AM 59.9 °F 55.6 °F 86% 29.85 in 7.0 mi ESE 6.9 mph - 0.04 in Rain Light Rain
6:14 AM 59.5 °F 55.8 °F 87% 29.85 in 7.0 mi East 8.1 mph - 0.01 in Rain Light Rain
6:34 AM 58.5 °F 56.1 °F 92% 29.85 in 5.0 mi ESE 11.5 mph - 0.04 in Rain Light Rain
6:54 AM 58.3 °F 56.3 °F 93% 29.84 in 3.0 mi East 11.5 mph 16.1 mph 0.08 in Rain Light Rain
7:14 AM 58.1 °F 56.3 °F 94% 29.84 in 4.0 mi East 8.1 mph - 0.02 in Rain Light Rain
7:34 AM 58.1 °F 56.3 °F 94% 29.82 in 5.0 mi East 8.1 mph - 0.04 in Rain Light Rain
7:54 AM 58.1 °F 56.3 °F 94% 29.82 in 5.0 mi East 9.2 mph 18.4 mph 0.06 in Rain Light Rain
8:14 AM 58.1 °F 56.3 °F 94% 29.82 in 10.0 mi East 10.4 mph 19.6 mph N/A   Overcast
8:34 AM 58.1 °F 56.3 °F 94% 29.82 in 10.0 mi ESE 10.4 mph 17.3 mph N/A   Overcast
8:54 AM 58.5 °F 56.5 °F 93% 29.81 in 10.0 mi ESE 9.2 mph 18.4 mph N/A Rain Light Rain
9:14 AM 59.2 °F 55.4 °F 87% 29.81 in 10.0 mi East 11.5 mph 18.4 mph N/A   Overcast
9:34 AM 59.7 °F 54.9 °F 84% 29.81 in 10.0 mi East 10.4 mph 19.6 mph N/A   Overcast
9:54 AM 60.1 °F 54.1 °F 81% 29.81 in 10.0 mi East 10.4 mph 16.1 mph N/A   Overcast
10:14 AM 60.8 °F 54.1 °F 79% 29.80 in 10.0 mi East 11.5 mph 19.6 mph N/A   Overcast
10:34 AM 61.7 °F 54.1 °F 76% 29.80 in 10.0 mi East 10.4 mph 16.1 mph N/A   Mostly Cloudy
10:54 AM 62.1 °F 53.8 °F 74% 29.81 in 10.0 mi ESE 8.1 mph 18.4 mph N/A   Mostly Cloudy
11:14 AM 62.6 °F 54.1 °F 74% 29.81 in 10.0 mi SE 8.1 mph - N/A   Overcast
11:34 AM 62.6 °F 53.6 °F 72% 29.80 in 10.0 mi ESE 10.4 mph 17.3 mph N/A   Overcast
11:54 AM 62.6 °F 53.6 °F 72% 29.81 in 10.0 mi SE 6.9 mph - N/A   Overcast
12:14 PM 62.6 °F 53.8 °F 73% 29.81 in 10.0 mi SE 8.1 mph 18.4 mph N/A   Overcast
12:34 PM 62.1 °F 54.5 °F 76% 29.81 in 5.0 mi SE 6.9 mph - 0.01 in Rain Light Rain
12:54 PM 59.7 °F 56.3 °F 88% 29.81 in 2.5 mi Calm Calm - 0.05 in Rain Light Rain
1:14 PM 59.4 °F 57.4 °F 93% 29.81 in 2.5 mi ESE 3.5 mph - 0.02 in Rain Light Rain
1:34 PM 59.9 °F 58.1 °F 94% 29.81 in 1.5 mi ESE 3.5 mph - 0.07 in Rain Light Rain
1:54 PM 60.1 °F 58.3 °F 94% 29.81 in 2.0 mi East 3.5 mph - 0.10 in Rain Light Rain
2:14 PM 60.4 °F 58.8 °F 94% 29.81 in 4.0 mi ESE 4.6 mph - N/A Rain Light Rain
2:34 PM 60.8 °F 59.2 °F 94% 29.80 in 7.0 mi ESE 4.6 mph - 0.01 in   Overcast
2:54 PM 61.0 °F 59.4 °F 94% 29.80 in 7.0 mi ESE 4.6 mph - 0.01 in   Overcast
3:14 PM 61.3 °F 59.9 °F 95% 29.80 in 10.0 mi ESE 3.5 mph - N/A   Overcast
3:34 PM 62.1 °F 60.4 °F 94% 29.79 in 10.0 mi ESE 6.9 mph - N/A   Overcast
3:54 PM 63.5 °F 60.4 °F 90% 29.79 in 10.0 mi SE 5.8 mph - N/A   Overcast
4:14 PM 64.6 °F 59.9 °F 85% 29.79 in 10.0 mi ESE 8.1 mph - N/A   Overcast
4:34 PM 65.7 °F 60.4 °F 83% 29.79 in 10.0 mi ESE 6.9 mph - N/A   Mostly Cloudy
4:54 PM 66.9 °F 60.4 °F 80% 29.79 in 10.0 mi SE 5.8 mph - N/A   Scattered Clouds
5:14 PM 68.2 °F 60.4 °F 76% 29.79 in 10.0 mi SE 5.8 mph - N/A   Mostly Cloudy
5:34 PM 68.2 °F 60.6 °F 77% 29.79 in 10.0 mi East 5.8 mph - N/A   Mostly Cloudy
5:54 PM 69.1 °F 60.8 °F 75% 29.78 in 10.0 mi ENE 9.2 mph - N/A   Scattered Clouds
6:14 PM 69.8 °F 61.0 °F 73% 29.78 in 10.0 mi East 6.9 mph - N/A   Scattered Clouds
6:34 PM 69.1 °F 60.8 °F 75% 29.78 in 10.0 mi East 9.2 mph - N/A   Mostly Cloudy
6:54 PM 68.9 °F 60.3 °F 74% 29.78 in 10.0 mi East 6.9 mph - N/A   Overcast
7:14 PM 68.9 °F 60.8 °F 75% 29.78 in 10.0 mi East 3.5 mph - N/A   Mostly Cloudy
7:34 PM 68.5 °F 60.8 °F 76% 29.79 in 10.0 mi East 5.8 mph - N/A   Mostly Cloudy
7:54 PM 68.4 °F 60.8 °F 77% 29.79 in 10.0 mi East 3.5 mph - N/A   Scattered Clouds
8:14 PM 67.8 °F 60.8 °F 78% 29.79 in 10.0 mi East 3.5 mph - N/A   Clear
8:34 PM 67.3 °F 60.8 °F 80% 29.79 in 10.0 mi East 3.5 mph - N/A   Clear
8:54 PM 66.6 °F 60.8 °F 82% 29.79 in 10.0 mi Calm Calm - N/A   Clear
9:14 PM 65.8 °F 60.8 °F 84% 29.80 in 10.0 mi Calm Calm - N/A   Clear
9:34 PM 65.7 °F 60.8 °F 84% 29.80 in 10.0 mi Calm Calm - N/A   Scattered Clouds
9:54 PM 65.3 °F 60.8 °F 85% 29.81 in 10.0 mi Calm Calm - N/A   Scattered Clouds
10:14 PM 65.5 °F 60.8 °F 85% 29.82 in 10.0 mi East 4.6 mph - N/A   Mostly Cloudy
10:34 PM 65.3 °F 61.0 °F 86% 29.82 in 10.0 mi East 3.5 mph - N/A   Mostly Cloudy
10:54 PM 65.5 °F 61.2 °F 86% 29.82 in 10.0 mi Calm Calm - N/A   Scattered Clouds
11:14 PM 65.5 °F 61.5 °F 87% 29.82 in 10.0 mi Calm Calm - N/A   Scattered Clouds
11:34 PM 65.3 °F 61.5 °F 88% 29.82 in 7.0 mi Calm Calm - N/A   Scattered Clouds
11:54 PM 64.4 °F 61.0 °F 89% 29.82 in 7.0 mi Calm Calm - N/A   Clear